Indianapolis, IN

7:29 AM EDT on September 20, 2017 (GMT -0400)
Indianapolis Terry

Weather History for KTYQ - May, 2013

Change the Weather History Date:

Tuesday, May 7, 2013

  Actual Average (KEYE) Record (KEYE)
Temperature  
Mean Temperature 64 °F -  
Max Temperature 73 °F 69 °F 85 °F (2015)
Min Temperature 56 °F 49 °F 39 °F (2017)
Growing Degree Days 14 (Base 50)    
Moisture  
Dew Point 52 °F    
Average Humidity 65    
Maximum Humidity 87    
Minimum Humidity 42    
Precipitation  
Precipitation 0.00 in - - ()
Sea Level Pressure  
Sea Level Pressure 29.99 in    
Wind  
Wind Speed 3 mph (ENE)    
Max Wind Speed 12 mph    
Max Gust Speed 18 mph    
Visibility 10 miles    
Events      
Averages and records for this station are not official NWS values.
T = Trace of Precipitation, MM = Missing Value Source: NWS Daily Summary

Daily Weather History Graph

Daily Weather History Graph

Search for Another Location

Airport or City:

Trip Planner

Search our weather history database for the weather conditions in past years. The results will help you decide how hot, cold, wet, or windy it might be!

Date:

Astronomy

May. 07, 2013 Rise Set
Actual Time 6:37 AM EDT 8:46 PM EDT
Civil Twilight 6:07 AM EDT 9:16 PM EDT
Nautical Twilight 5:31 AM EDT 9:52 PM EDT
Astronomical Twilight 4:51 AM EDT 10:33 PM EDT
Moon 5:11 AM EDT (5/7) 6:45 PM EDT (5/7)
Length of Visible Light 15h 08m
Length of Day
14h 08m
Waning Crescent, 5% of the Moon is Illuminated
May 7
Waning Crescent
May 9
New
May 18
First Quarter
May 25
Full
May 31
Last Quarter

Hourly Weather History & Observations

Time (EDT) Temp. Dew Point Humidity Pressure Visibility Wind Dir Wind Speed Gust Speed Precip Events Conditions
12:15 AM 58.5 °F 53.2 °F 83% 29.99 in 10.0 mi Calm Calm - N/A   Overcast
12:35 AM 58.5 °F 53.6 °F 84% 29.99 in 10.0 mi Calm Calm - N/A   Overcast
12:55 AM 58.5 °F 53.6 °F 84% 29.99 in 10.0 mi Calm Calm - N/A   Overcast
1:15 AM 58.3 °F 53.6 °F 84% 29.99 in 10.0 mi Calm Calm - N/A   Overcast
1:35 AM 58.3 °F 53.6 °F 84% 29.98 in 10.0 mi Calm Calm - N/A   Overcast
1:55 AM 57.9 °F 53.4 °F 85% 29.98 in 10.0 mi Calm Calm - N/A   Overcast
2:15 AM 58.1 °F 53.6 °F 85% 29.98 in 10.0 mi Calm Calm - N/A   Overcast
2:35 AM 57.7 °F 53.6 °F 86% 29.97 in 10.0 mi North 3.5 mph - N/A   Overcast
2:55 AM 58.1 °F 53.2 °F 84% 29.97 in 10.0 mi North 3.5 mph - N/A   Overcast
3:15 AM 58.8 °F 52.9 °F 81% 29.97 in 10.0 mi North 4.6 mph - N/A   Overcast
3:35 AM 58.6 °F 52.7 °F 81% 29.97 in 10.0 mi North 5.8 mph - N/A   Overcast
4:15 AM 58.8 °F 52.7 °F 80% 29.98 in 10.0 mi Calm Calm - N/A   Overcast
4:35 AM 59.0 °F 53.1 °F 81% 29.98 in 10.0 mi Calm Calm - N/A   Overcast
4:55 AM 58.3 °F 52.9 °F 82% 29.98 in 10.0 mi Calm Calm - N/A   Overcast
5:15 AM 58.3 °F 53.1 °F 83% 29.98 in 10.0 mi Calm Calm - N/A   Overcast
5:35 AM 57.6 °F 53.1 °F 85% 29.98 in 10.0 mi Calm Calm - N/A   Overcast
5:55 AM 57.6 °F 53.1 °F 85% 29.98 in 10.0 mi Calm Calm - N/A   Overcast
6:15 AM 57.4 °F 53.1 °F 85% 29.99 in 10.0 mi Calm Calm - N/A   Overcast
6:35 AM 56.7 °F 52.3 °F 85% 29.99 in 10.0 mi Calm Calm - N/A   Overcast
6:55 AM 57.2 °F 52.7 °F 85% 29.99 in 10.0 mi Calm Calm - N/A   Overcast
7:15 AM 56.5 °F 52.3 °F 86% 30.00 in 10.0 mi Calm Calm - N/A   Overcast
7:35 AM 56.7 °F 52.7 °F 87% 30.00 in 10.0 mi Calm Calm - N/A   Scattered Clouds
7:55 AM 58.6 °F 53.8 °F 84% 30.01 in 10.0 mi East 3.5 mph - N/A   Clear
8:15 AM 59.9 °F 52.9 °F 78% 30.01 in 10.0 mi East 3.5 mph - N/A   Scattered Clouds
8:35 AM 61.0 °F 52.7 °F 74% 30.02 in 10.0 mi East 6.9 mph - N/A   Scattered Clouds
8:55 AM 62.1 °F 53.2 °F 73% 30.02 in 10.0 mi ESE 6.9 mph - N/A   Clear
9:15 AM 63.0 °F 53.2 °F 71% 30.02 in 10.0 mi East 4.6 mph - N/A   Clear
9:35 AM 63.3 °F 52.2 °F 67% 30.02 in 10.0 mi ESE 5.8 mph - N/A   Clear
9:55 AM 64.2 °F 52.2 °F 65% 30.02 in 10.0 mi ENE 6.9 mph - N/A   Clear
10:15 AM 65.1 °F 51.8 °F 62% 30.02 in 10.0 mi East 5.8 mph - N/A   Clear
10:35 AM 66.9 °F 52.3 °F 59% 30.02 in 10.0 mi ENE 9.2 mph - N/A   Clear
10:55 AM 68.0 °F 52.9 °F 58% 30.02 in 10.0 mi Calm Calm - N/A   Clear
11:15 AM 68.0 °F 51.3 °F 55% 30.01 in 10.0 mi NE 10.4 mph - N/A   Clear
11:35 AM 69.1 °F 50.9 °F 52% 30.02 in 10.0 mi NE 9.2 mph - N/A   Clear
11:55 AM 69.4 °F 50.7 °F 51% 30.02 in 10.0 mi East 9.2 mph 18.4 mph N/A   Scattered Clouds
12:15 PM 69.8 °F 50.9 °F 51% 30.02 in 10.0 mi East 10.4 mph 16.1 mph N/A   Mostly Cloudy
12:35 PM 69.8 °F 50.7 °F 51% 30.02 in 10.0 mi NE 10.4 mph - N/A   Mostly Cloudy
12:55 PM 70.5 °F 50.4 °F 49% 30.01 in 10.0 mi ENE 6.9 mph - N/A   Mostly Cloudy
1:15 PM 70.3 °F 51.4 °F 51% 30.00 in 10.0 mi NNE 11.5 mph - N/A   Overcast
1:55 PM 70.5 °F 50.7 °F 49% 30.00 in 10.0 mi ESE 6.9 mph - N/A   Mostly Cloudy
2:15 PM 70.2 °F 49.6 °F 48% 29.99 in 10.0 mi ENE 3.5 mph - N/A   Mostly Cloudy
2:35 PM 72.7 °F 50.7 °F 46% 29.99 in 10.0 mi ENE 6.9 mph - N/A   Mostly Cloudy
2:55 PM 72.5 °F 49.1 °F 44% 29.99 in 10.0 mi NE 8.1 mph - N/A   Mostly Cloudy
3:15 PM 71.2 °F 50.2 °F 47% 29.99 in 10.0 mi NE 9.2 mph - N/A   Overcast
3:35 PM 72.0 °F 49.3 °F 45% 29.98 in 10.0 mi East 5.8 mph - N/A   Mostly Cloudy
3:55 PM 72.7 °F 48.7 °F 43% 29.98 in 10.0 mi NE 6.9 mph - N/A   Mostly Cloudy
4:15 PM 72.7 °F 48.9 °F 43% 29.97 in 10.0 mi East 9.2 mph - N/A   Overcast
4:35 PM 73.2 °F 49.6 °F 43% 29.97 in 10.0 mi ENE 5.8 mph - N/A   Mostly Cloudy
4:55 PM 73.8 °F 49.5 °F 42% 29.96 in 10.0 mi ENE 6.9 mph - N/A   Mostly Cloudy
5:15 PM 73.0 °F 49.6 °F 44% 29.96 in 10.0 mi ENE 4.6 mph - N/A   Mostly Cloudy
5:35 PM 72.9 °F 49.3 °F 43% 29.96 in 10.0 mi ENE 4.6 mph - N/A   Overcast
5:55 PM 72.1 °F 49.5 °F 45% 29.96 in 10.0 mi ENE 6.9 mph - N/A   Overcast
6:15 PM 71.8 °F 50.4 °F 47% 29.96 in 10.0 mi NE 5.8 mph - N/A   Mostly Cloudy
6:35 PM 72.3 °F 50.0 °F 45% 29.96 in 10.0 mi NE 4.6 mph - N/A   Mostly Cloudy
6:55 PM 72.1 °F 50.2 °F 46% 29.96 in 10.0 mi NE 6.9 mph - N/A   Scattered Clouds
7:15 PM 72.5 °F 49.8 °F 45% 29.96 in 10.0 mi East 5.8 mph - N/A   Scattered Clouds
7:35 PM 70.7 °F 50.4 °F 48% 29.96 in 10.0 mi Calm Calm - N/A   Clear
7:55 PM 70.7 °F 51.8 °F 51% 29.96 in 10.0 mi Calm Calm - N/A   Mostly Cloudy
8:15 PM 70.0 °F 52.7 °F 54% 29.96 in 10.0 mi Calm Calm - N/A   Overcast
8:35 PM 68.2 °F 52.9 °F 58% 29.97 in 10.0 mi Calm Calm - N/A   Scattered Clouds
8:55 PM 65.8 °F 54.1 °F 66% 29.97 in 10.0 mi Calm Calm - N/A   Clear
9:15 PM 65.3 °F 54.3 °F 68% 29.98 in 10.0 mi NNE 3.5 mph - N/A   Mostly Cloudy
9:35 PM 64.8 °F 53.2 °F 66% 29.98 in 10.0 mi Calm Calm - N/A   Mostly Cloudy
9:55 PM 64.4 °F 52.9 °F 66% 29.99 in 10.0 mi NNE 3.5 mph - N/A   Scattered Clouds
10:15 PM 63.5 °F 53.6 °F 70% 29.99 in 10.0 mi NNE 4.6 mph - N/A   Mostly Cloudy
10:35 PM 66.6 °F 52.3 °F 60% 30.00 in 10.0 mi East 9.2 mph - N/A   Overcast
10:55 PM 65.7 °F 53.6 °F 65% 30.01 in 10.0 mi East 5.8 mph - N/A   Overcast
11:15 PM 64.4 °F 54.5 °F 70% 30.00 in 10.0 mi Calm Calm - N/A   Overcast
11:35 PM 63.7 °F 54.9 °F 73% 30.00 in 10.0 mi Calm Calm - N/A   Overcast
11:55 PM 62.4 °F 54.7 °F 76% 30.00 in 10.0 mi Calm Calm - N/A   Overcast